OK1LPD-6 Weather Reports


time (UTC)temp
C
wind
direction
speed
KPH
gust
KPH
rain 1hr
cm
rain 24hr
cm
rain mn
cm
humidity
%
barometer
mb
20260505005449 14 0 0.0 0.0 0.00 0.13 0.13 91 1009.9
20260505004500 14 0 0.0 0.0 0.00 0.13 0.13 91 1009.9
20260505003449 14 0 0.0 0.0 0.00 0.13 0.13 89 1010.1
20260505002449 14 0 0.0 0.0 0.00 0.13 0.13 88 1009.9
20260505001502 14 0 0.0 0.0 0.00 0.13 0.13 87 1010.3
20260505000450 15 0 0.0 0.0 0.00 0.13 0.13 84 1010.1
20260504235450 15 0 0.0 0.0 0.03 0.13 0.13 83 1010.0
20260504234507 15 0 0.0 0.0 0.10 0.13 0.13 81 1010.1
20260504233450 15 0 0.0 0.0 0.13 0.13 0.13 78 1010.4
20260504232450 16 0 0.0 0.0 0.13 0.13 0.13 76 1010.5
20260504231511 16 135 0.0 1.6 0.13 0.13 0.13 72 1010.6
20260504230451 16 0 0.0 0.0 0.13 0.13 0.13 71 1010.3
20260504225450 16 45 0.0 1.6 0.10 0.10 0.10 73 1010.7
20260504224508 16 0 0.0 0.0 0.03 0.03 0.03 75 1011.4
20260504223450 16 0 0.0 0.0 0.00 0.00 0.00 73 1011.8
20260504222450 17 0 0.0 0.0 0.00 0.00 0.00 70 1011.9
20260504221510 17 0 0.0 0.0 0.00 0.00 0.00 63 1012.5
20260504220450 17 0 0.0 0.0 0.00 0.00 0.00 65 1012.4
20260504215450 16 0 0.0 0.0 0.00 0.00 0.00 66 1012.3
20260504214508 16 0 0.0 0.0 0.00 0.00 0.00 68 1011.7
20260504213451 16 0 0.0 0.0 0.00 0.00 0.00 70 1011.3
20260504212451 16 0 0.0 0.0 0.00 0.00 0.00 69 1011.2
20260504211511 16 0 0.0 0.0 0.00 0.00 0.00 65 1011.2
20260504210452 16 0 0.0 0.0 0.00 0.00 0.00 64 1011.3
20260504205451 17 0 0.0 0.0 0.00 0.00 0.00 65 1011.3
20260504204509 17 0 0.0 0.0 0.00 0.00 0.00 65 1011.3
20260504203451 17 0 0.0 0.0 0.00 0.00 0.00 64 1011.4
20260504202451 17 0 0.0 0.0 0.00 0.00 0.00 63 1011.3
20260504201511 17 0 0.0 0.0 0.00 0.00 0.00 60 1011.3
20260504200451 17 0 0.0 0.0 0.00 0.00 0.00 60 1011.5
20260504195452 17 0 0.0 0.0 0.00 0.00 0.00 60 1011.5
20260504194512 17 0 0.0 0.0 0.00 0.00 0.00 60 1011.4
20260504193452 17 0 0.0 0.0 0.00 0.00 0.00 56 1011.3
20260504192452 17 0 0.0 0.0 0.00 0.00 0.00 55 1011.3
20260504191512 17 0 0.0 0.0 0.00 0.00 0.00 54 1011.3
20260504190452 18 0 0.0 0.0 0.00 0.00 0.00 53 1011.2
20260504185453 18 0 0.0 0.0 0.00 0.00 0.00 52 1011.2
20260504184510 19 0 0.0 0.0 0.00 0.00 0.00 51 1010.9
20260504183452 20 0 0.0 0.0 0.00 0.00 0.00 51 1011.0
20260504182452 20 0 0.0 0.0 0.00 0.00 0.00 47 1011.0
20260504181513 21 0 0.0 0.0 0.00 0.00 0.00 47 1011.0
20260504180453 22 0 0.0 0.0 0.00 0.00 0.00 44 1010.9
20260504175453 22 0 0.0 0.0 0.00 0.00 0.00 44 1010.9
20260504174511 22 0 0.0 0.0 0.00 0.00 0.00 40 1010.8
20260504173453 22 0 0.0 0.0 0.00 0.00 0.00 40 1010.9
20260504172454 23 0 0.0 0.0 0.00 0.00 0.00 39 1010.9
20260504171514 23 0 0.0 0.0 0.00 0.00 0.00 38 1010.9
20260504170453 23 0 0.0 0.0 0.00 0.00 0.00 36 1011.1
20260504150454 25 0 0.0 0.0 0.00 0.00 0.00 31 1011.6
20260504140455 25 0 0.0 0.0 0.00 0.00 0.00 31 1012.1
20260504130455 25 0 0.0 0.0 0.00 0.00 0.00 31 1012.6
20260504110456 23 0 0.0 0.0 0.00 0.00 0.00 32 1013.5
20260504100458 22 0 0.0 0.0 0.00 0.00 0.00 33 1014.1
20260504081518 21 0 0.0 0.0 0.00 0.00 0.00 42 1014.0
20260504080458 22 0 0.0 0.0 0.00 0.00 0.00 40 1014.0
20260504050459 11 0 0.0 0.0 0.00 0.00 0.00 72 1013.7
20260504045500 11 0 0.0 0.0 0.00 0.00 0.00 73 1013.5
20260504044518 11 0 0.0 0.0 0.00 0.00 0.00 73 1013.3
20260504043501 11 0 0.0 0.0 0.00 0.00 0.00 73 1013.3
20260504042501 11 0 0.0 0.0 0.00 0.00 0.00 74 1013.4
20260504041521 11 0 0.0 0.0 0.00 0.00 0.00 74 1013.4
20260504040501 10 0 0.0 0.0 0.00 0.00 0.00 75 1013.5
20260504035501 10 0 0.0 0.0 0.00 0.00 0.00 76 1013.7
20260504034513 10 0 0.0 0.0 0.00 0.00 0.00 78 1013.5
20260504033501 10 0 0.0 0.0 0.00 0.00 0.00 79 1013.5
20260504032501 10 0 0.0 0.0 0.00 0.00 0.00 74 1013.5
20260504031512 10 0 0.0 0.0 0.00 0.00 0.00 73 1013.2
20260504030501 11 0 0.0 0.0 0.00 0.00 0.00 72 1013.2
20260504025501 11 0 0.0 0.0 0.00 0.00 0.00 72 1013.4
20260504024511 11 0 0.0 0.0 0.00 0.00 0.00 73 1013.4
20260504023501 11 0 0.0 0.0 0.00 0.00 0.00 73 1013.4
20260504022501 11 0 0.0 0.0 0.00 0.00 0.00 74 1013.4
20260504021514 11 0 0.0 0.0 0.00 0.00 0.00 75 1013.3
20260504020501 11 0 0.0 0.0 0.00 0.00 0.00 71 1013.2
20260504015502 11 0 0.0 0.0 0.00 0.00 0.00 70 1012.9
20260504014512 12 0 0.0 0.0 0.00 0.00 0.00 70 1013.1
20260504013501 12 0 0.0 0.0 0.00 0.00 0.00 68 1013.1
20260504012503 12 0 0.0 0.0 0.00 0.00 0.00 67 1013.0
20260504011514 12 0 0.0 0.0 0.00 0.00 0.00 63 1012.9
20260504010502 12 0 0.0 0.0 0.00 0.00 0.00 62 1013.0